KD2RHT-13 Weather Reports


Display with metric or nautical units.
time (UTC)temp
F
wind
direction
speed
MPH
gust
MPH
rain 1hr
in
rain 24hr
in
rain mn
in
humidity
%
barometer
mb
20260901034139 68 162 0.0 0.0 0.00 0.01 0.01 99 1017.9
20260901033638 68 166 0.0 0.0 0.00 0.01 0.01 99 1018.3
20260901033137 68 160 0.0 0.0 0.00 0.01 0.01 99 1018.3
20260901032636 68 160 0.0 0.0 0.00 0.01 0.01 99 1018.3
20260901032131 68 161 0.0 0.0 0.00 0.01 0.01 99 1018.3
20260901031627 68 158 0.0 0.0 0.00 0.01 0.01 99 1018.3
20260901031122 68 158 0.0 0.0 0.00 0.01 0.01 99 1018.3
20260901030617 68 156 0.0 0.0 0.00 0.01 0.01 99 1018.3
20260901030112 68 161 0.0 0.0 0.00 0.01 0.01 99 1018.3
20260901025611 68 166 0.0 0.0 0.00 0.01 0.01 99 1018.3
20260901025106 68 165 0.0 0.0 0.00 0.01 0.01 99 1018.3
20260901024601 68 162 0.0 0.0 0.00 0.01 0.01 99 1018.3
20260901024100 68 164 0.0 0.0 0.00 0.01 0.01 99 1018.3
20260901023559 68 162 0.0 0.0 0.00 0.01 0.01 98 1018.3
20260901023054 68 167 0.0 0.0 0.00 0.01 0.01 99 1018.3
20260901022549 68 164 0.0 0.0 0.00 0.01 0.01 98 1018.3
20260901022044 68 144 0.0 0.0 0.00 0.01 0.01 98 1018.3
20260901021540 68 161 0.0 0.0 0.00 0.01 0.01 98 1018.3
20260901021035 68 56 2.0 2.0 0.00 0.01 0.01 98 1018.3
20260901020530 68 150 0.0 1.0 0.00 0.01 0.01 98 1018.6
20260901020026 68 155 0.0 0.0 0.00 0.01 0.01 98 1018.6
20260901015521 68 158 0.0 0.0 0.00 0.01 0.01 98 1018.3
20260901015020 68 153 0.0 0.0 0.00 0.01 0.01 98 1018.6
20260901014516 68 160 0.0 0.0 0.00 0.01 0.01 98 1018.6
20260901014012 68 147 0.0 0.0 0.00 0.01 0.01 98 1018.6
20260901013508 68 158 0.0 0.0 0.00 0.01 0.01 98 1018.6
20260901013003 68 161 0.0 0.0 0.00 0.01 0.01 98 1018.6
20260901012502 68 157 0.0 0.0 0.00 0.01 0.01 98 1018.9
20260901011958 68 159 0.0 0.0 0.00 0.01 0.01 98 1018.9
20260901011454 68 235 2.0 3.0 0.00 0.01 0.01 98 1018.9
20260901010952 68 157 0.0 0.0 0.00 0.01 0.01 98 1018.9
20260901010447 68 160 0.0 0.0 0.00 0.01 0.01 98 1018.6
20260901005946 68 163 0.0 0.0 0.00 0.01 0.01 98 1018.6
20260901005441 68 152 0.0 0.0 0.00 0.01 0.01 98 1018.6
20260901004936 68 157 0.0 0.0 0.00 0.01 0.01 98 1018.6
20260901004436 68 153 0.0 0.0 0.00 0.01 0.01 98 1018.6
20260901003931 68 161 0.0 0.0 0.00 0.01 0.01 98 1018.6
20260901003426 68 160 0.0 0.0 0.00 0.01 0.01 98 1018.6
20260901002924 68 154 0.0 0.0 0.00 0.01 0.01 98 1018.6
20260901002424 68 150 0.0 0.0 0.00 0.01 0.01 98 1018.6
20260901001919 69 161 0.0 0.0 0.00 0.01 0.01 98 1018.3
20260901001414 69 162 0.0 0.0 0.00 0.01 0.01 98 1018.3
20260901000909 69 160 0.0 0.0 0.00 0.01 0.01 98 1018.3
20260901000405 69 161 0.0 0.0 0.00 0.01 0.01 98 1018.3
20260831235903 69 157 0.0 0.0 0.00 0.01 0.01 98 1018.3
20260831235400 69 158 0.0 0.0 0.00 0.01 0.01 98 1018.6
20260831234859 69 161 0.0 0.0 0.00 0.01 0.01 98 1018.3
20260831234354 69 159 0.0 0.0 0.00 0.01 0.01 98 1018.3
20260831233849 69 161 0.0 0.0 0.00 0.01 0.01 98 1018.3
20260831233344 69 160 0.0 0.0 0.00 0.01 0.01 98 1018.6
20260831232840 69 158 0.0 0.0 0.00 0.01 0.01 98 1018.6
20260831232336 69 160 0.0 0.0 0.00 0.01 0.01 98 1018.6
20260831231832 69 162 0.0 0.0 0.00 0.01 0.01 98 1018.6
20260831231328 69 159 0.0 0.0 0.00 0.01 0.01 97 1018.6
20260831230823 69 162 0.0 0.0 0.00 0.01 0.01 97 1018.6
20260831230318 69 161 0.0 0.0 0.00 0.01 0.01 97 1018.6
20260831225817 69 157 0.0 0.0 0.00 0.01 0.01 97 1018.6
20260831225312 69 198 0.0 0.0 0.00 0.01 0.01 97 1018.6
20260831224808 69 138 0.0 0.0 0.00 0.01 0.01 97 1018.6
20260831224303 69 152 0.0 0.0 0.00 0.01 0.01 97 1018.6
20260831223757 69 158 0.0 0.0 0.00 0.01 0.01 97 1018.6
20260831223254 69 161 0.0 0.0 0.00 0.01 0.01 97 1018.6
20260831222750 69 154 0.0 1.0 0.00 0.01 0.01 97 1018.6
20260831222246 69 207 0.0 1.0 0.00 0.01 0.01 97 1018.9
20260831221741 69 160 0.0 0.0 0.00 0.01 0.01 97 1018.9
20260831221236 69 156 0.0 0.0 0.00 0.01 0.01 97 1018.9
20260831220731 69 151 0.0 1.0 0.00 0.01 0.01 97 1018.9
20260831220227 69 160 0.0 1.0 0.00 0.01 0.01 97 1018.9
20260831215727 69 160 0.0 0.0 0.00 0.01 0.01 97 1018.9
20260831215223 69 170 0.0 0.0 0.00 0.01 0.01 96 1018.9
20260831214719 69 177 2.0 2.0 0.00 0.01 0.01 96 1018.9
20260831214216 69 148 0.0 1.0 0.00 0.01 0.01 96 1018.9
20260831213711 69 167 0.0 0.0 0.00 0.01 0.01 96 1019.3
20260831213208 69 157 1.0 1.0 0.00 0.01 0.01 96 1019.3
20260831212703 69 167 1.0 1.0 0.00 0.01 0.01 96 1018.9
20260831212200 69 184 0.0 1.0 0.00 0.01 0.01 95 1019.3
20260831211658 69 164 1.0 1.0 0.00 0.01 0.01 95 1019.3
20260831211154 69 162 0.0 0.0 0.00 0.01 0.01 95 1019.3
20260831210653 69 157 0.0 0.0 0.00 0.01 0.01 95 1019.6
20260831210150 69 166 0.0 0.0 0.00 0.01 0.01 95 1019.3
20260831205648 69 166 0.0 0.0 0.00 0.01 0.01 95 1019.3
20260831205145 69 159 0.0 0.0 0.00 0.01 0.01 95 1019.6
20260831204645 69 159 0.0 0.0 0.00 0.01 0.01 95 1019.6
20260831204143 69 158 0.0 0.0 0.00 0.01 0.01 95 1019.6
20260831203638 69 164 0.0 0.0 0.00 0.01 0.01 94 1020.0
20260831203137 69 154 0.0 1.0 0.00 0.01 0.01 94 1019.6
20260831202636 69 224 1.0 1.0 0.00 0.01 0.01 94 1020.0
20260831202131 69 343 2.0 2.0 0.00 0.01 0.01 94 1019.3
20260831201630 69 85 2.0 3.0 0.00 0.01 0.01 94 1019.6
20260831201125 69 181 1.0 2.0 0.00 0.01 0.01 94 1019.6
20260831200622 69 158 0.0 0.0 0.00 0.01 0.01 94 1019.6
20260831200121 69 246 2.0 2.0 0.00 0.01 0.01 94 1019.6
20260831195617 69 170 2.0 2.0 0.00 0.01 0.01 93 1019.3
20260831195112 69 158 0.0 0.0 0.00 0.01 0.01 93 1019.3
20260831194607 70 202 0.0 0.0 0.00 0.01 0.01 93 1019.6
20260831194102 69 157 0.0 0.0 0.00 0.01 0.01 93 1019.6
20260831193557 70 160 0.0 0.0 0.00 0.01 0.01 93 1019.6
20260831193057 70 171 1.0 1.0 0.00 0.01 0.01 92 1020.0
20260831192552 70 169 1.0 1.0 0.00 0.01 0.01 92 1020.0
20260831192048 70 141 1.0 1.0 0.00 0.01 0.01 92 1020.0
20260831191543 70 161 0.0 0.0 0.00 0.01 0.01 92 1020.0
20260831191039 71 162 1.0 2.0 0.00 0.01 0.01 92 1020.0
20260831190534 70 163 0.0 0.0 0.00 0.01 0.01 92 1020.0
20260831190033 70 161 0.0 1.0 0.00 0.01 0.01 93 1020.0
20260831185529 70 141 2.0 2.0 0.00 0.01 0.01 93 1020.3
20260831185024 70 157 0.0 1.0 0.00 0.01 0.01 93 1020.0
20260831184518 70 170 2.0 2.0 0.00 0.01 0.01 93 1020.3
20260831184014 70 187 1.0 1.0 0.00 0.01 0.01 93 1020.3
20260831183513 70 160 0.0 1.0 0.00 0.01 0.01 93 1020.3
20260831183013 69 159 0.0 0.0 0.00 0.01 0.01 93 1020.3
20260831182507 69 191 0.0 1.0 0.00 0.01 0.01 93 1020.3
20260831182003 69 168 0.0 0.0 0.00 0.01 0.01 93 1020.6
20260831181453 69 133 0.0 1.0 0.00 0.01 0.01 93 1020.3
20260831180953 69 176 3.0 5.0 0.00 0.01 0.01 92 1020.6
20260831180447 69 183 1.0 1.0 0.00 0.01 0.01 92 1020.3
20260831175946 69 173 1.0 1.0 0.00 0.01 0.01 93 1020.3
20260831175443 69 162 0.0 1.0 0.00 0.01 0.01 94 1020.3
20260831174938 69 163 0.0 0.0 0.00 0.01 0.01 94 1020.6
20260831174434 69 181 0.0 1.0 0.00 0.01 0.01 94 1021.0
20260831173933 69 159 0.0 0.0 0.00 0.01 0.01 94 1021.0
20260831173432 69 164 0.0 0.0 0.00 0.01 0.01 94 1021.0
20260831172928 69 167 0.0 0.0 0.00 0.01 0.01 93 1021.0
20260831172424 69 167 1.0 1.0 0.00 0.01 0.01 93 1021.0
20260831171923 69 169 1.0 1.0 0.00 0.01 0.01 93 1021.0
20260831171420 70 166 0.0 0.0 0.00 0.01 0.01 94 1021.3
20260831170916 70 182 1.0 2.0 0.00 0.01 0.01 93 1021.0
20260831170412 70 189 1.0 1.0 0.00 0.01 0.01 93 1021.3
20260831165908 70 175 0.0 0.0 0.00 0.01 0.01 93 1021.0
20260831165404 70 156 0.0 1.0 0.00 0.01 0.01 93 1021.3
20260831164901 70 154 1.0 1.0 0.00 0.01 0.01 93 1021.3
20260831164356 70 165 1.0 1.0 0.00 0.01 0.01 92 1021.3
20260831163852 70 153 1.0 2.0 0.00 0.01 0.01 92 1021.3
20260831163347 70 162 0.0 1.0 0.00 0.01 0.01 93 1021.3
20260831162845 70 164 0.0 0.0 0.00 0.01 0.01 92 1021.3
20260831162341 70 177 2.0 2.0 0.00 0.01 0.01 92 1021.3
20260831161839 70 121 0.0 1.0 0.00 0.01 0.01 92 1021.3
20260831161331 70 182 2.0 2.0 0.00 0.01 0.01 92 1021.3
20260831160826 70 164 1.0 1.0 0.00 0.01 0.01 92 1021.7
20260831160325 70 155 1.0 2.0 0.00 0.01 0.01 93 1021.7
20260831155821 70 172 1.0 1.0 0.00 0.01 0.01 93 1021.3
20260831155320 70 161 3.0 3.0 0.00 0.01 0.01 92 1021.7
20260831154816 70 167 0.0 1.0 0.00 0.01 0.01 93 1021.3
20260831154313 70 197 3.0 3.0 0.00 0.01 0.01 93 1021.3
20260831153811 71 180 1.0 1.0 0.05 0.01 0.01 93 1021.7
20260831153307 70 150 0.0 1.0 0.05 0.01 0.01 94 1021.7
20260831152803 70 168 1.0 1.0 0.00 0.00 0.00 93 1021.3
20260831152258 70 179 2.0 2.0 0.00 0.00 0.00 93 1021.7
20260831151754 69 164 1.0 1.0 0.00 0.00 0.00 93 1021.7
20260831151252 69 179 1.0 1.0 0.00 0.00 0.00 93 1021.7
20260831150748 69 161 0.0 0.0 0.00 0.00 0.00 92 1021.7
20260831150243 69 164 0.0 0.0 0.00 0.00 0.00 92 1021.7
20260831145742 70 191 1.0 2.0 0.00 0.00 0.00 91 1021.7
20260831145239 70 161 0.0 0.0 0.00 0.00 0.00 91 1021.7
20260831144734 70 161 0.0 1.0 0.00 0.00 0.00 91 1021.7
20260831144230 70 160 0.0 1.0 0.00 0.00 0.00 92 1022.1
20260831143730 69 161 0.0 0.0 0.00 0.00 0.00 92 1021.7
20260831143225 69 162 0.0 0.0 0.00 0.00 0.00 93 1021.7
20260831142721 69 164 1.0 1.0 0.00 0.00 0.00 93 1021.3
20260831142216 69 184 2.0 2.0 0.00 0.00 0.00 93 1021.0
20260831141715 69 158 3.0 3.0 0.00 0.00 0.00 93 1021.3
20260831141210 69 171 1.0 1.0 0.00 0.00 0.00 94 1021.3
20260831140710 68 162 0.0 0.0 0.00 0.00 0.00 95 1021.3
20260831140205 68 168 1.0 2.0 0.00 0.00 0.00 96 1021.3
20260831135703 68 179 1.0 1.0 0.00 0.00 0.00 96 1021.3
20260831135158 68 162 0.0 0.0 0.00 0.00 0.00 97 1021.7
20260831134654 68 161 0.0 0.0 0.00 0.00 0.00 98 1021.3
20260831134144 67 156 0.0 0.0 0.00 0.00 0.00 98 1021.7
20260831133643 67 160 0.0 1.0 0.00 0.00 0.00 98 1021.3
20260831133138 67 155 0.0 0.0 0.00 0.00 0.00 99 1021.7
20260831132634 66 187 0.0 1.0 0.00 0.00 0.00 99 1021.3
20260831132133 66 163 0.0 0.0 0.00 0.00 0.00 99 1021.3
20260831131628 66 174 0.0 0.0 0.00 0.00 0.00 99 1021.3
20260831131125 66 163 0.0 0.0 0.00 0.00 0.00 99 1021.3
20260831130619 65 160 0.0 0.0 0.00 0.00 0.00 99 1021.3
20260831130115 65 167 0.0 0.0 0.00 0.00 0.00 99 1021.7
20260831125612 65 160 0.0 0.0 0.00 0.00 0.00 99 1021.7
20260831125108 64 164 0.0 0.0 0.00 0.00 0.00 99 1021.7
20260831124605 64 169 0.0 0.0 0.00 0.00 0.00 99 1021.7
20260831124100 64 167 0.0 0.0 0.00 0.00 0.00 99 1021.3
20260831123559 64 167 0.0 0.0 0.00 0.00 0.00 99 1021.3
20260831123054 64 163 0.0 0.0 0.00 0.00 0.00 99 1021.7
20260831122549 64 161 0.0 0.0 0.00 0.00 0.00 99 1021.7
20260831122045 63 162 0.0 0.0 0.00 0.00 0.00 99 1022.1
20260831121544 63 161 0.0 0.0 0.00 0.00 0.00 99 1021.7
20260831121040 63 158 0.0 0.0 0.00 0.00 0.00 99 1022.1
20260831120540 63 161 0.0 0.0 0.00 0.00 0.00 99 1021.7
20260831120036 63 158 0.0 0.0 0.00 0.00 0.00 99 1022.1
20260831115531 63 162 0.0 0.0 0.00 0.00 0.00 99 1022.1
20260831115027 63 162 0.0 0.0 0.00 0.00 0.00 99 1022.1
20260831114525 63 158 0.0 0.0 0.00 0.00 0.00 99 1022.1
20260831114021 63 158 0.0 0.0 0.00 0.00 0.00 99 1022.1
20260831113520 63 159 0.0 0.0 0.00 0.00 0.00 99 1022.1
20260831113016 63 159 0.0 0.0 0.00 0.00 0.00 99 1022.1
20260831112515 63 161 0.0 0.0 0.00 0.00 0.00 99 1022.1
20260831112010 63 158 0.0 0.0 0.00 0.00 0.00 99 1022.1
20260831111506 63 157 0.0 0.0 0.00 0.00 0.00 99 1021.7
20260831111002 63 160 0.0 0.0 0.00 0.00 0.00 99 1021.7
20260831110502 63 158 0.0 0.0 0.00 0.00 0.00 99 1021.7
20260831110001 63 159 0.0 0.0 0.00 0.00 0.00 99 1022.1
20260831105456 63 158 0.0 0.0 0.00 0.00 0.00 99 1021.7
20260831104957 62 157 0.0 0.0 0.00 0.00 0.00 99 1022.1
20260831104453 62 153 0.0 0.0 0.00 0.00 0.00 99 1021.7
20260831103948 62 155 0.0 0.0 0.00 0.00 0.00 99 1021.7
20260831103443 62 157 0.0 0.0 0.00 0.00 0.00 99 1021.7
20260831102939 62 158 0.0 0.0 0.00 0.00 0.00 99 1021.3
20260831102439 62 158 0.0 0.0 0.00 0.00 0.00 99 1021.7
20260831101934 62 157 0.0 0.0 0.00 0.00 0.00 99 1021.3
20260831101429 62 161 0.0 0.0 0.00 0.00 0.00 99 1021.3
20260831100925 62 158 0.0 0.0 0.00 0.00 0.00 99 1021.0
20260831100421 62 157 0.0 0.0 0.00 0.00 0.00 99 1021.3
20260831095915 62 161 0.0 0.0 0.00 0.00 0.00 99 1021.3
20260831095415 62 157 0.0 0.0 0.00 0.00 0.00 99 1021.0
20260831094910 62 161 0.0 0.0 0.00 0.00 0.00 99 1021.3
20260831094406 62 165 0.0 0.0 0.00 0.00 0.00 99 1021.0
20260831093902 62 161 0.0 0.0 0.00 0.00 0.00 99 1021.0
20260831093356 62 157 0.0 0.0 0.00 0.00 0.00 99 1021.0
20260831092853 62 158 0.0 0.0 0.00 0.00 0.00 99 1021.3
20260831092348 62 158 0.0 0.0 0.00 0.00 0.00 99 1021.0
20260831091843 62 158 0.0 0.0 0.00 0.00 0.00 99 1021.3
20260831091339 62 157 0.0 0.0 0.00 0.00 0.00 99 1021.3
20260831090834 62 157 0.0 0.0 0.00 0.00 0.00 99 1021.3
20260831090330 62 158 0.0 0.0 0.00 0.00 0.00 99 1021.3
20260831085826 62 161 0.0 0.0 0.00 0.00 0.00 99 1021.3
20260831085320 62 158 0.0 0.0 0.00 0.00 0.00 99 1021.0
20260831084815 63 161 0.0 0.0 0.00 0.00 0.00 99 1021.3
20260831084312 63 161 0.0 0.0 0.00 0.00 0.00 99 1021.3
20260831083807 63 157 0.0 0.0 0.00 0.00 0.00 99 1021.0
20260831083303 63 160 0.0 0.0 0.00 0.00 0.00 99 1021.0
20260831082801 63 161 0.0 0.0 0.00 0.00 0.00 99 1021.3
20260831082256 63 158 0.0 0.0 0.00 0.00 0.00 99 1021.0
20260831081752 63 157 0.0 0.0 0.00 0.00 0.00 99 1021.3
20260831081248 63 161 0.0 0.0 0.00 0.00 0.00 99 1021.3
20260831080743 63 161 0.0 0.0 0.00 0.00 0.00 99 1021.7
20260831080237 62 161 0.0 0.0 0.00 0.00 0.00 99 1021.3
20260831075733 62 158 0.0 0.0 0.00 0.00 0.00 99 1021.3
20260831075229 62 158 0.0 0.0 0.00 0.00 0.00 99 1021.3
20260831074729 63 158 0.0 0.0 0.00 0.00 0.00 99 1021.0
20260831074228 63 158 0.0 0.0 0.00 0.00 0.00 99 1021.3
20260831073724 63 157 0.0 0.0 0.00 0.00 0.00 99 1021.0
20260831073223 63 162 0.0 0.0 0.00 0.00 0.00 99 1021.0
20260831072718 63 156 0.0 0.0 0.00 0.00 0.00 99 1021.0
20260831072215 63 158 0.0 0.0 0.00 0.00 0.00 99 1021.0
20260831071714 63 157 0.0 0.0 0.00 0.00 0.00 99 1021.0
20260831071209 63 157 0.0 0.0 0.00 0.00 0.00 99 1021.7
20260831070708 63 157 0.0 0.0 0.00 0.00 0.00 99 1021.3
20260831070202 63 157 0.0 0.0 0.00 0.00 0.00 99 1021.3
20260831065702 63 157 0.0 0.0 0.00 0.00 0.00 99 1021.3
20260831065201 63 158 0.0 0.0 0.00 0.00 0.00 99 1021.3
20260831064655 63 158 0.0 0.0 0.00 0.00 0.00 99 1021.3
20260831064151 63 158 0.0 0.0 0.00 0.00 0.00 99 1021.3
20260831063647 63 158 0.0 0.0 0.00 0.00 0.00 99 1021.0
20260831063142 64 161 0.0 0.0 0.00 0.00 0.00 99 1021.0
20260831062643 64 161 0.0 0.0 0.00 0.00 0.00 99 1021.3
20260831062142 64 164 0.0 0.0 0.00 0.00 0.00 99 1021.3
20260831061640 64 163 0.0 0.0 0.00 0.00 0.00 99 1021.3
20260831061136 64 165 0.0 0.0 0.00 0.00 0.00 99 1021.3
20260831060633 63 157 0.0 0.0 0.00 0.00 0.00 99 1021.7
20260831060132 63 157 0.0 0.0 0.00 0.00 0.00 99 1021.7
20260831055631 64 158 0.0 0.0 0.00 0.00 0.00 99 1021.7
20260831055127 64 158 0.0 0.0 0.00 0.00 0.00 99 1021.3
20260831054626 64 161 0.0 0.0 0.00 0.00 0.00 99 1022.1
20260831054121 64 165 0.0 0.0 0.00 0.00 0.00 99 1021.7
20260831053620 64 158 0.0 0.0 0.00 0.00 0.00 99 1022.1
20260831053114 64 157 0.0 0.0 0.00 0.00 0.00 99 1022.1
20260831052613 64 161 0.0 0.0 0.00 0.00 0.00 99 1022.1
20260831052113 64 161 0.0 0.0 0.00 0.00 0.00 99 1021.7
20260831051611 64 159 0.0 0.0 0.00 0.00 0.00 99 1022.1
20260831051110 64 158 0.0 0.0 0.00 0.00 0.00 99 1022.1
20260831050610 64 158 0.0 0.0 0.00 0.00 0.00 99 1022.1
20260831050108 64 158 0.0 0.0 0.00 0.00 0.00 99 1022.1
20260831045608 64 160 0.0 0.0 0.00 0.00 0.00 99 1022.4
20260831045103 64 161 0.0 0.0 0.00 0.00 0.00 99 1022.1
20260831044559 64 161 0.0 0.0 0.00 0.00 0.00 99 1022.4
20260831044054 64 160 0.0 0.0 0.00 0.00 0.00 99 1022.1
20260831043549 64 158 0.0 0.0 0.00 0.00 0.00 99 1022.1
20260831043044 64 161 0.0 0.0 0.00 0.00 0.00 99 1022.1
20260831042543 64 163 0.0 0.0 0.00 0.00 0.00 99 1022.1
20260831042039 64 162 0.0 0.0 0.00 0.00 0.00 99 1021.7
20260831041534 63 161 0.0 0.0 0.00 0.00 0.00 99 1021.7
20260831041033 63 161 0.0 0.0 0.00 0.00 0.00 99 1021.7
20260831040528 63 161 0.0 0.0 0.00 0.00 0.00 99 1021.7
20260831040027 63 161 0.0 0.0 0.00 0.04 0.04 99 1021.7
20260831035525 63 164 0.0 0.0 0.00 0.04 0.04 99 1021.7
20260831035021 63 161 0.0 0.0 0.00 0.04 0.04 99 1022.1
20260831034515 62 161 0.0 0.0 0.00 0.04 0.04 99 1021.7